{"data":{"norad_id":68523,"intl_designator":"2026-068R","name":"STARLINK-37208","alt_names":[],"object_type":"PAYLOAD","status":"ACTIVE","operator":null,"country":"US","launch_date":"2026-03-30","launch_site_code":"AFETR","launch_vehicle":null,"mission":null,"orbit_class":"UNKNOWN","rcs_meters":null,"size_class":null,"mass_kg":null,"dimensions":null,"purposes":["comms"],"wikipedia_slug":null,"has_3d_model":false,"image_url":null,"decayed_at":null,"tle_current":{"epoch":"2026-05-25T05:27:43.604064Z","epoch_age_seconds":45574,"freshness":"FRESH","line1":"1 68523U 26068R   26145.22758801  .00020486  00000+0  61583-3 0  9992","line2":"2 68523  53.1609 132.3043 0001144  78.6543 281.4588 15.34397139  8682","mean_motion":15.34397139,"eccentricity":0.0001144,"inclination_deg":53.1609,"raan_deg":132.3043,"arg_perigee_deg":78.6543,"mean_anomaly_deg":281.4588,"bstar":0.00061583,"rev_number":868,"period_min":93.847933067607,"perigee_km":461.92915061897,"apogee_km":463.49433681153,"semimajor_km":6840.8487437152,"source":"CELESTRAK","updated_at":"2026-05-25T13:38:21.955601Z"}}}